Kaktovik, AK

3:49 AM AKST on January 24, 2017 (GMT -0900)
Barter Island LRRS

Weather History for PABA - November, 2012

Change the Weather History Date:

Monday, November 19, 2012

  Actual Average Record
Temperature  
Mean Temperature -4 °F -  
Max Temperature 6 °F 10 °F 21 °F (1997)
Min Temperature -13 °F 0 °F -32 °F (2005)
Degree Days  
Heating Degree Days 69    
Moisture  
Dew Point -7 °F    
Average Humidity 92    
Maximum Humidity 100    
Minimum Humidity 86    
Precipitation  
Precipitation 0.00 in - - ()
Sea Level Pressure  
Sea Level Pressure 30.55 in    
Wind  
Wind Speed 4 mph (SSE)    
Max Wind Speed 16 mph    
Max Gust Speed -    
Visibility 10 miles    
Events      
Averages and records for this station are not official NWS values.
T = Trace of Precipitation, MM = Missing Value Source: NWS Daily Summary

Daily Weather History Graph

Daily Weather History Graph

Search for Another Location

Airport or City:

Trip Planner

Search our weather history database for the weather conditions in past years. The results will help you decide how hot, cold, wet, or windy it might be!

Date:

Astronomy

Nov. 19, 2012 Rise Set
Actual Time 11:03 AM AKST 1:35 PM AKST
Civil Twilight 9:05 AM AKST 3:32 PM AKST
Nautical Twilight 7:39 AM AKST 4:59 PM AKST
Astronomical Twilight 6:24 AM AKST 6:13 PM AKST
Moon 1:57 PM AKST (11/19) 10:40 PM AKST (11/19)
Length of Visible Light 6h 27m
Length of Day
2h 32m
Waxing Crescent, 42% of the Moon is Illuminated
Nov 19
Waxing Crescent
Nov 20
First Quarter
Nov 28
Full
Dec 6
Last Quarter
Dec 12
New

Hourly Weather History & Observations

Time (AKST) Temp. Windchill Dew Point Humidity Pressure Visibility Wind Dir Wind Speed Gust Speed Precip Events Conditions
12:01 AM -7.1 °F -18.1 °F -9.0 °F 91% 30.52 in 10.0 mi South 4.6 mph - N/A   Unknown
1:01 AM -9.0 °F -23.8 °F -11.0 °F 91% 30.53 in 10.0 mi SSW 6.9 mph - N/A   Unknown
2:01 AM -8.0 °F -21.0 °F -9.9 °F 91% 30.53 in 10.0 mi SSW 5.8 mph - N/A   Unknown
3:01 AM -6.0 °F -16.9 °F -8.0 °F 91% 30.54 in 10.0 mi SW 4.6 mph - N/A   Unknown
4:01 AM -9.0 °F -18.2 °F -11.0 °F 91% 30.55 in 10.0 mi WSW 3.5 mph - N/A   Unknown
5:01 AM -11.0 °F -20.4 °F -14.1 °F 86% 30.55 in 10.0 mi SSW 3.5 mph - N/A   Unknown
6:01 AM -11.9 °F - -15.0 °F 86% 30.56 in 10.0 mi Calm Calm - N/A   Unknown
7:01 AM -9.9 °F -21.5 °F -11.9 °F 91% 30.56 in 10.0 mi SE 4.6 mph - N/A   Unknown
8:01 AM -11.9 °F - -14.1 °F 90% 30.56 in 10.0 mi Calm Calm - N/A   Unknown
9:01 AM -11.9 °F -21.5 °F -14.1 °F 90% 30.56 in 10.0 mi SSE 3.5 mph - N/A   Unknown
10:01 AM -11.9 °F -23.8 °F -15.0 °F 86% 30.57 in 10.0 mi South 4.6 mph - N/A   Unknown
11:01 AM -13.0 °F -22.7 °F -15.0 °F 91% 30.58 in 10.0 mi South 3.5 mph - N/A   Unknown
12:01 PM -8.0 °F -21.0 °F -9.0 °F 95% 30.57 in 10.0 mi South 5.8 mph - N/A   Unknown
1:01 PM -8.0 °F - -9.0 °F 95% 30.57 in 9.0 mi Calm Calm - N/A   Unknown
2:01 PM -7.1 °F - -9.0 °F 91% 30.56 in 9.0 mi Calm Calm - N/A   Unknown
3:01 PM -5.1 °F - -7.1 °F 91% 30.56 in 10.0 mi Calm Calm - N/A   Unknown
4:01 PM -4.0 °F - -5.1 °F 95% 30.56 in 10.0 mi Calm Calm - N/A   Unknown
5:01 PM -4.0 °F - -5.1 °F 95% 30.56 in 10.0 mi Calm Calm - N/A   Unknown
6:01 PM -0.9 °F - -2.0 °F 95% 30.55 in 10.0 mi Calm Calm - N/A   Unknown
7:01 PM 1.9 °F -7.6 °F 1.9 °F 100% 30.54 in 10.0 mi ESE 4.6 mph - N/A   Unknown
8:01 PM 3.0 °F -10.5 °F 3.0 °F 100% 30.54 in 10.0 mi SE 8.1 mph - N/A   Unknown
9:01 PM 5.0 °F -10.0 °F 3.9 °F 95% 30.53 in 10.0 mi ESE 10.4 mph - N/A   Unknown
10:01 PM 5.0 °F -10.8 °F 3.9 °F 95% 30.52 in 10.0 mi ESE 11.5 mph - N/A   Unknown
11:01 PM 5.0 °F -13.6 °F 3.9 °F 95% 30.51 in 10.0 mi ESE 16.1 mph - N/A   Unknown